sat.trackr.live / text

‹ back to catalog

METEOSAT-9 (MSG-2)

NORAD 28912 · 2005-049B

PAYLOAD ACTIVE UNKNOWN

§ Identity

Operator
Country
EUME
Launch date
2005-12-21
Launch site
FRGUI
Launch vehicle
Mass (kg)
RCS (m²)
2.08

Purposes: comms, earth_obs

External: N2YO · Heavens-Above · Gunter

§ Orbital elements

Epoch: 2026-09-04T02:32:35.293920Z

Period
1,436.13 min
Inclination
9.5355°
Eccentricity
0.0001535
Mean motion
1.00269561 rev/d
Perigee alt
35,780.7 km
Apogee alt
35,793.7 km
Semi-major
42,165.4 km
B*
0.0000e+0
RAAN
53.3616°
Arg perigee
346.6879°
Mean anomaly
27.0386°
Rev number
779

§ Raw data

METEOSAT-9 (MSG-2)1 28912U 05049B   26247.10596405  .00000119  00000+0  00000+0 0  99902 28912   9.5355  53.3616 0001535 346.6879  27.0386  1.00269561  7791

JSON: /api/v1/satellites/28912 · /tle

For live sub-satellite position, see the globe view (requires WebGL).

§ Visibility from observer

Set your observer location to see the next 7 days of passes ≥ 10°. The values pass through the URL so the page stays shareable.

No JS? Fill the form by hand. The geolocation button needs JavaScript.